Погода в Красносельском

Россия / Республика Крым     45°24′54″N   32°40′31″E
темп.,
°C
ветер,
м/с
пор.,
м/с
влажн.,
%
обл.,
%
осадки,
мм/ч
давл.,
гПа
погр.,
м
27 ноября, сб
сб2700:00+10ююв81679100 0.0 1008493
03:00+11ююв131881100 1.9 1006720
06:00+13ю141979100 0.3 1004825
09:00+13ююз8139279 0.4 1005476
12:00+13юз91384100 0.1 1006545
15:00+13ююз81285100 0.1 1005462
18:00+13ююз91488100 0.0 1006468
21:00+13ююз8129177 0.0 1007293
28 ноября, вс
вс2800:00+12ююз61093100 0.0 1007201
03:00+12ююз46910 0.0 100782
06:00+12ю589480 0.0 1007130
09:00+13ю7119293 0.0 1008233
12:00+14ююз81384100 0.0 1008431
15:00+12ююв71194100 0.3 1007458
18:00+12ююв81296100 3.1 1006410
21:00+13ю11159196 3.8 1004554
29 ноября, пн
пн2900:00+13ююз9149372 0.0 1005484
03:00+13ю9159151 0.1 1004394
06:00+13ю101890100 0.5 1002488
09:00+14ю12217988 1.5 1000513
12:00+15ю13217711 0.3 999687
15:00+15ююз14238219 2.5 997744
18:00+14ююз142188100 0.4 997629
21:00+12зюз91382100 0.4 999523
30 ноября, вт
вт3000:00+11зюз8108395 0.0 1000521
03:00+11зюз5781100 0.0 1001409
06:00+10юз5780100 0.4 1002408
09:00+10юз4580100 0.8 1002268
12:00+11ююз3371100 0.1 1002641
15:00+10с3376100 0.2 1000359
18:00+7ссв111281100 5.9 1000618
21:00+7ссз121457100 8.0 1002994
1 декабря, ср
ср100:00+6сз101163100 0.0 1006979
03:00+6сз89615 0.0 1009782
06:00+6зсз78570 0.0 1010679
09:00+6зюз696074 0.0 10111128
12:00+8зюз9115799 0.0 10101768
15:00+8з11126247 0.3 10091563
18:00+7з9116054 0.0 10101146
21:00+8з895970 0.1 10111093